Regional Weather Roundup
Issued by NWS Burlington, VT

Current Version | Previous Version | Text Only | Print | Product List | Glossary On
Versions: 1 2 3 4 5 6 7 8 9 10 11 12 13 14 15 16 17 18 19 20 21 22 23 24 25 26 27 28 29 30 31 32 33 34 35 36 37 38 39 40 41 42 43 44 45 46 47 48 49 50
000 ASUS41 KBTV 191630 RWRBTV VERMONT REGIONAL WEATHER ROUNDUP NATIONAL WEATHER SERVICE BURLINGTON VT 1100 AM EST MON FEB 19 2018 NOTE: "FAIR" INDICATES FEW OR NO CLOUDS BELOW 12,000 FEET WITH NO SIGNIFICANT WEATHER AND/OR OBSTRUCTIONS TO VISIBILITY. * THESE REPORTS ARE NOT UNDER NWS QUALITY CONTROL AND/OR DO NOT REPORT WEATHER SUCH AS PRECIPITATION AND FOG. VTZ001>019-191700- _____VERMONT_____ CITY SKY/WX TMP DP RH WIND PRES REMARKS BURLINGTON PTSUNNY 39 23 52 S29G41 30.29F WCI 27 MONTPELIER FAIR 34 22 61 S14G20 30.35F WCI 25 MORRISVILLE FAIR 36 21 54 CALM 30.30F ST. JOHNSBURY* N/A 36 23 59 MISG 30.33F LYNDONVILLE* FAIR 33 22 63 SE15G24 30.34F WCI 23 MIDDLEBURY* FAIR 40 24 52 S17G24 30.34F WCI 31 RUTLAND* FAIR 41 24 51 S14 30.34F SPRINGFIELD FAIR 35 23 61 SE8 30.40F WCI 29 HIGHGATE* FAIR 40 24 52 S18G29 30.27S WCI 31 NEWPORT* FAIR 37 21 52 S15G21 30.29F WCI 28 BENNINGTON FAIR 42 25 50 S12 30.36F ISLAND POND* N/A 36 N/A N/A MISG N/A GALLUP MILLS* N/A 36 N/A N/A MISG N/A UNION VILLAGE* N/A 39 N/A N/A MISG N/A MT. MANSFIELD* N/A 28 N/A N/A SW47 N/A WCI 10 _____LAKE CHAMPLAIN_____ CITY SKY/WX TMP DP RH WIND PRES REMARKS BURTON ISLAND* N/A 36 28 75 SW29G41 N/A WCI 23 COLCHESTER RF* N/A 36 27 69 S33 N/A WCI 22 $$ NYZ007-026>031-035-052-083-087-191700- _____NORTHERN NEW YORK_____ CITY SKY/WX TMP DP RH WIND PRES REMARKS PLATTSBURGH FAIR 37 23 56 S14 30.28S WCI 28 SARANAC LAKE FAIR 37 25 61 MISG 30.19S MASSENA FAIR 44 28 53 S16 30.19F OGDENSBURG* FAIR 46 28 49 S14G22 30.17F POTSDAM* SUNNY 45 27 49 SW8G24 30.18S STARK FALLS* N/A 41 N/A N/A S13 N/A WATERTOWN FAIR 45 29 53 S12G25 30.17F FT DRUM SUNNY 41 28 59 S20 30.16F ALBANY PTSUNNY 42 27 55 S18G24 30.39F GLENS FALLS FAIR 38 26 62 SW8G22 30.37F $$ NHZ002-005-011-191700- _____NEW HAMPSHIRE_____ CITY SKY/WX TMP DP RH WIND PRES REMARKS LEBANON FAIR 38 24 57 S16 30.39F WCI 29 KEENE FAIR 41 30 65 S17 30.43F MT WASHINGTON CLOUDY 19 16 86 SW37G53 N/A WCI -1 PLYMOUTH FAIR 37 22 55 E7 30.41F WCI 32 WHITEFIELD FAIR 38 23 55 CALM 30.34F $$ _____REGIONAL QUEBEC LOCATIONS_____ CITY SKY/WX TMP DP RH WIND PRES REMARKS SHERBROOKE MOSUNNY 39 19 45 S17G32 30.25F WCI 30 _____REGIONAL ONTARIO LOCATIONS_____ CITY SKY/WX TMP DP RH WIND PRES REMARKS ______KEY______ VSB - VISIBILITY IN MILES WCI - WIND CHILL INDEX HX - HEAT INDEX $$ NNNN

USA.gov is the U.S. government's official web portal to all federal, state and local government web resources and services.